Regional Weather Roundup
Issued by NWS Spokane, WA

Home | Current Version | Previous Version | Text Only | Print | Product List | Glossary On
Versions: 1 2 3 4 5 6 7 8 9 10 11 12 13 14 15 16 17 18 19 20 21 22 23 24 25 26 27 28 29 30 31 32 33 34 35 36 37 38 39 40 41 42 43 44 45 46 47 48 49 50
352
NZUS01 KOTX 301025
RWROTX

Eastern Washington/Northern Idaho Roundup
National Weather Service, Spokane WA
300 AM PDT SUN APR 30 2017

Note: "fair" indicated few or no clouds below 12,000 feet with no
significant weather and/or obstructions to visibility.

...Northeast Washington and Northern Idaho Panhandle...

CITY           SKY/WX    TMP DP  RH WIND       PRES   REMARKS
Spokane Intl   LGT RAIN  48  33  56 S17       30.00F
Spokane Downto CLOUDY    51  36  56 SW8       30.02F
Deer Park      CLOUDY    47  37  68 S7        30.01F
Sandpoint      DRIZZLE   43  41  93 W3        30.04F
Bonners Ferry  CLOUDY    41  37  87 SW9       30.00F

...Southeast Washington and southern Idaho Panhandle...

CITY           SKY/WX    TMP DP  RH WIND       PRES   REMARKS
Walla Walla    LGT RAIN  52  43  71 S10       30.10F
Pullman/Moscow LGT RAIN  47  37  68 SW13      30.08F
Lewiston       LGT RAIN  52  47  83 E5        30.07R
Lowell           N/A     47  42  83 CALM      30.13S
Grangeville    CLOUDY    48  34  57 SW6       30.08S

...Columbia Basin...

CITY           SKY/WX    TMP DP  RH WIND       PRES   REMARKS
Ephrata        MOCLDY    44  34  67 SW9       30.00R
Moses Lake     CLOUDY    51  37  58 S8        30.00F
Pasco          CLOUDY    58  40  51 S10       30.06F
Richland       CLOUDY    58  42  55 S6        30.06S
Hermiston      CLOUDY    52  41  66 S7        30.08F
Pendleton      CLOUDY    51  39  63 CALM      30.10S

...East Slopes Cascades...

CITY           SKY/WX    TMP DP  RH WIND       PRES   REMARKS
The Dalles     CLOUDY    53  47  79 W5        30.12S
Yakima         MOCLDY    50  40  68 N6        30.03F
Ellensburg     CLOUDY    48  41  76 SW7       30.03S
Stampede Pass  CLOUDY    38  38 100 W12G23    30.03S FOG
Wenatchee      PTCLDY    46  38  73 CALM      30.01S
Omak           PTCLDY    43  33  68 W5        29.96F
Chelan           N/A     46  37  71 SE12        N/A
Sunnyside      PTSUNNY   46  41  83 N3        30.04F

...Southern British Columbia...

CITY           SKY/WX    TMP DP  RH WIND       PRES   REMARKS
Penticton      CLOUDY    45  41  87 N7        29.95S
Cranbrook      MOCLDY    41  34  75 S9        29.94S
Osoyoos          N/A     52  36  54 SE6         N/A
Creston          N/A     45  37  76 S8          N/A

...Western Montana...

CITY           SKY/WX    TMP DP  RH WIND       PRES   REMARKS
Kalispell      CLOUDY    47  31  53 SW5       30.00R
Libby            N/A     45  36  70 E9        30.00S
Missoula       CLOUDY    48  33  56 N5        30.04F

...Neighboring Cities...

CITY           SKY/WX    TMP DP  RH WIND       PRES   REMARKS
Seattle        CLOUDY    49  48  97 S13       30.12R
Portland       CLOUDY    51  47  86 S5        30.20S
Boise          CLOUDY    48  31  51 SE7       30.10F
Great Falls    CLOUDY    44  29  55 SW10      29.93F
Calgary        MOCLDY    45  27  49 SW5       29.77S



USA.gov is the U.S. government's official web portal to all federal, state and local government web resources and services.